Weather in Seget Vranjica

Croatia     43°30′50″N   16°11′11″E
temp.,
°C
wind,
m/s
gust,
m/s
humid.,
%
clouds,
%
prec.,
mm/h
press.,
hPa
HPBL,
m
4 march, thu
thu401:00+10n12600 0.0 102895
04:00+10nne11580 0.0 102696
07:00+9ene22580 0.0 1026130
10:00+11se22550 0.0 1024295
13:00+11s11580 0.0 1022217
16:00+11s11530 0.0 1021206
19:00+11ese22580 0.0 1021255
22:00+10ese34660 0.0 1021328
5 march, fri
fri501:00+10e45651 0.0 1020315
04:00+10e56700 0.0 1019311
07:00+10e46696 0.0 1018376
10:00+11ese57726 0.0 1019733
13:00+12se787723 0.3 1018868
16:00+13se457459 0.2 1017640
19:00+11ese567830 0.2 1019489
22:00+11e457850 0.0 1020497
6 march, sat
sat601:00+11ne337872 0.1 1022252
04:00+10nne347591 0.0 1023148
07:00+8ne696296 0.0 1024357
10:00+10ne465084 0.0 1026467
13:00+13ene234554 0.0 1026747
16:00+12w12520 0.0 1026395
19:00+10ne45540 0.0 1027320
22:00+9ne45560 0.0 1028226
7 march, sun
sun701:00+8nne34580 0.0 1028163
04:00+7ne33590 0.0 1027133
07:00+7ne22590 0.0 1026127
10:00+9sse01540 0.0 1026350
13:00+10sw32616 0.0 1024364
16:00+10wsw225947 0.0 1022319
19:00+10nw016239 0.0 1022177
22:00+10ne116490 0.0 1022169
8 march, mon
mon801:00+10ene116495 0.0 1020234
04:00+9ene2373100 0.3 1018192
07:00+9ese4477100 0.7 1019400
10:00+10e3476100 0.1 1019482
13:00+10sse3377100 0.2 1018522
16:00+10ese2276100 0.1 1017409
19:00+10n2380100 0.3 1018207
22:00+10nne337799 0.0 1019192